Flag for Germany Weather past 2 weeks in Amberg, Bavaria, Germany

Now
72 °F

Passing clouds.


Feels Like: 77 °F
Forecast: 50 / 60 °F
Wind: 8 mph from Northwest

Location: Hohenfels

Current Time: Aug 30, 2014 at 5:27:30 PM

Latest Report: Aug 30, 2014 at 4:58 PM


Visibility: N/A

Pressure: 30.05 "Hg

Humidity: 50%

Dew point: 52 °F

Location of AmbergLocation

Historic Weather in Amberg — Graph

°F

Amberg temperature yesterday

Maximum temperature yesterday: 70 °F (at 4:58 PM)
Minimum temperature yesterday: 52 °F (at 5:58 AM)
Average temperature yesterday: 60 °F

Past Weeks' High & Low Weather Summary

 TemperatureHumidityPressure
High72 °F (Aug 30, 1:58 PM)100% (Aug 26, 4:58 AM)30.17 "Hg (Aug 26, 4:58 AM)
Low37 °F (Aug 25, 5:58 AM)37% (Aug 21, 2:58 PM)29.70 "Hg (Aug 26, 8:58 AM)
Average57 °F76%30.00 "Hg
* Reported Aug 15 3:58 PM — Aug 30 3:58 PM, Amberg, Weather by CustomWeather, © 2014

Note: Actual official high and low records may vary slightly from our data, if they occured in-between our weather recording intervals... More about our weather records

Advertising

Amberg weather history for previous 24 hours

 ConditionsComfort  
Time TempWeatherWind HumidityBarometerVisibility
3:58 PM
Aug 30
70 °FPartly sunny.9 mph53%30.07 "HgN/A
2:58 PM72 °FBroken clouds.10 mph53%30.07 "HgN/A
1:58 PM72 °FScattered clouds.12 mph53%30.08 "HgN/A
12:58 PM70 °FScattered clouds.6 mph60%30.10 "HgN/A
11:58 AM68 °FPartly sunny.7 mph64%30.11 "HgN/A
10:58 AM66 °FBroken clouds.3 mph78%30.11 "HgN/A
9:58 AM63 °FMostly cloudy.8 mph83%30.11 "HgN/A
8:58 AM63 °FSunny.9 mph88%30.09 "HgN/A
7:58 AM61 °FMostly cloudy.6 mph94%30.09 "HgN/A
6:58 AM61 °FOvercast.7 mph94%30.07 "HgN/A
5:58 AM57 °FOvercast.5 mph100%30.06 "HgN/A
4:58 AM57 °FPassing clouds.2 mph100%30.05 "HgN/A
3:58 AM55 °FPassing clouds.No wind100%30.06 "HgN/A
2:59 AM57 °FOvercast.1 mph94%30.09 "HgN/A
2:58 AM55 °FDrizzle. Overcast.No wind100%30.07 "HgN/A
1:58 AM55 °FOvercast.No wind100%30.09 "HgN/A
12:58 AM55 °FOvercast.1 mph100%30.09 "HgN/A
11:58 PM
Aug 29
57 °FOvercast.1 mph100%30.07 "HgN/A
10:58 PM57 °FClear.1 mph94%30.06 "HgN/A
8:58 PM59 °FSunny.3 mph100%30.05 "HgN/A
7:58 PM63 °FSunny.No wind94%30.05 "HgN/A
6:58 PM70 °FSunny.5 mph73%30.03 "HgN/A
5:58 PM70 °FSunny.3 mph69%30.03 "HgN/A
Weather by CustomWeather, © 2014

See weather overviewHow to use our weather pages